TimeCST,TemperatureF,Dew PointF,Humidity,Sea Level PressureIn,VisibilityMPH,Wind Direction,Wind SpeedMPH,Gust SpeedMPH,PrecipitationIn,Events,Conditions,WindDirDegrees,DateUTC
12:53 AM,42.1,36.0,79,30.06,10.0,Calm,Calm,-,N/A,,Partly Cloudy,0,2013-12-29 06:53:00
1:53 AM,42.1,37.0,82,30.06,10.0,Calm,Calm,-,N/A,,Clear,0,2013-12-29 07:53:00
2:53 AM,39.9,37.0,89,30.05,10.0,Calm,Calm,-,N/A,,Clear,0,2013-12-29 08:53:00
3:53 AM,39.0,37.0,93,30.04,10.0,Calm,Calm,-,N/A,,Clear,0,2013-12-29 09:53:00
4:53 AM,39.9,36.0,86,30.02,10.0,Calm,Calm,-,N/A,,Clear,0,2013-12-29 10:53:00
5:53 AM,39.0,36.0,89,30.04,10.0,Calm,Calm,-,N/A,,Clear,0,2013-12-29 11:53:00
6:53 AM,39.0,36.0,89,30.06,10.0,Calm,Calm,-,N/A,,Scattered Clouds,0,2013-12-29 12:53:00
7:53 AM,39.9,37.0,89,30.09,10.0,Calm,Calm,-,N/A,,Mostly Cloudy,0,2013-12-29 13:53:00
8:53 AM,50.0,43.0,77,30.11,10.0,Calm,Calm,-,N/A,,Mostly Cloudy,0,2013-12-29 14:53:00
9:53 AM,54.0,41.0,62,30.12,10.0,Calm,Calm,-,N/A,,Mostly Cloudy,0,2013-12-29 15:53:00
10:53 AM,59.0,36.0,42,30.12,10.0,Variable,3.5,-,N/A,,Scattered Clouds,0,2013-12-29 16:53:00
11:53 AM,62.1,34.0,35,30.10,10.0,Calm,Calm,-,N/A,,Scattered Clouds,0,2013-12-29 17:53:00
12:53 PM,64.0,33.1,31,30.06,10.0,Calm,Calm,-,N/A,,Scattered Clouds,0,2013-12-29 18:53:00
1:53 PM,66.0,35.1,32,30.05,10.0,SSW,3.5,-,N/A,,Mostly Cloudy,210,2013-12-29 19:53:00
2:53 PM,66.0,37.9,36,30.03,10.0,Calm,Calm,-,N/A,,Mostly Cloudy,0,2013-12-29 20:53:00
3:53 PM,66.0,37.9,36,30.04,10.0,Calm,Calm,-,N/A,,Mostly Cloudy,0,2013-12-29 21:53:00
4:53 PM,62.1,39.0,43,30.06,10.0,ESE,6.9,-,N/A,,Mostly Cloudy,120,2013-12-29 22:53:00
5:53 PM,59.0,41.0,51,30.08,10.0,SE,4.6,-,N/A,,Mostly Cloudy,130,2013-12-29 23:53:00
6:53 PM,57.9,43.0,58,30.10,10.0,ESE,3.5,-,N/A,,Mostly Cloudy,110,2013-12-30 00:53:00
7:53 PM,57.0,43.0,59,30.12,10.0,Calm,Calm,-,N/A,,Mostly Cloudy,0,2013-12-30 01:53:00
8:53 PM,57.0,43.0,59,30.14,10.0,NNW,5.8,-,N/A,,Mostly Cloudy,330,2013-12-30 02:53:00
9:53 PM,57.0,44.1,62,30.17,10.0,NE,5.8,-,N/A,,Mostly Cloudy,40,2013-12-30 03:53:00
10:53 PM,55.9,44.1,64,30.18,10.0,Calm,Calm,-,N/A,,Mostly Cloudy,0,2013-12-30 04:53:00
11:53 PM,55.0,46.9,74,30.16,10.0,North,6.9,-,N/A,,Mostly Cloudy,360,2013-12-30 05:53:00